{"data":{"norad_id":60146,"intl_designator":"2024-120M","name":"STARLINK-32127","alt_names":[],"object_type":"PAYLOAD","status":"ACTIVE","operator":null,"country":"US","launch_date":"2024-06-27","launch_site_code":"AFETR","launch_vehicle":null,"mission":null,"orbit_class":"UNKNOWN","rcs_meters":null,"size_class":null,"mass_kg":null,"dimensions":null,"purposes":["comms"],"wikipedia_slug":null,"has_3d_model":false,"image_url":null,"decayed_at":null,"tle_current":{"epoch":"2026-05-24T19:12:41.387328Z","epoch_age_seconds":85512,"freshness":"FRESH","line1":"1 60146U 24120M   26144.80047902 -.00000394  00000+0 -11970-5 0  9993","line2":"2 60146  53.1612 326.0742 0001081  93.8227 266.2898 15.30189201108035","mean_motion":15.30189201,"eccentricity":0.0001081,"inclination_deg":53.1612,"raan_deg":326.0742,"arg_perigee_deg":93.8227,"mean_anomaly_deg":266.2898,"bstar":-1.197e-6,"rev_number":10803,"period_min":94.106009835839,"perigee_km":474.50646263213,"apogee_km":475.98816432071,"semimajor_km":6853.3843134764,"source":"CELESTRAK","updated_at":"2026-05-25T13:38:19.190130Z"}}}